• In Deutschland
  • Länderverzeichnis
  • Für 7 Tage
  • Wassertemperatur
  • Satellitenkarten
  • Wetterkarte
  • Widgets
  • user-avatar
    Anmelden

    Stündliche Wetter Zelenkino

    Heute, 14 August, Dienstag

    Zeit Temperatur Niederschläge Wind Luftdruck Luftfeuchtigkeit
    00:00 +12°C° 0 mm 2 m/S 746 mmHg 97%
    01:00 +12°C° 0 mm 1 m/S 746 mmHg 97%
    02:00 +12°C° 0 mm 1 m/S 746 mmHg 97%
    03:00 +12°C° 0 mm 1 m/S 746 mmHg 97%
    04:00 +11°C° 0 mm 1 m/S 746 mmHg 97%
    05:00 +11°C° 0 mm 1 m/S 746 mmHg 97%
    06:00 +13°C° 0 mm 1 m/S 747 mmHg 90%
    07:00 +15°C° 0 mm 1 m/S 747 mmHg 84%
    08:00 +18°C° 0 mm 1 m/S 747 mmHg 77%
    09:00 +20°C° 0 mm 1 m/S 747 mmHg 69%
    10:00 +22°C° 0 mm 1 m/S 747 mmHg 60%
    11:00 +24°C° 0 mm 1 m/S 747 mmHg 52%
    12:00 +24°C° 0 mm 1 m/S 746 mmHg 50%
    13:00 +25°C° 0 mm 1 m/S 746 mmHg 48%
    14:00 +25°C° 0 mm 1 m/S 746 mmHg 47%
    15:00 +25°C° 0,1 mm 1 m/S 746 mmHg 52%
    16:00 +25°C° 0,1 mm 1 m/S 746 mmHg 57%
    17:00 +24°C° 0,1 mm 1 m/S 745 mmHg 62%
    18:00 +23°C° 0,1 mm 2 m/S 745 mmHg 70%
    19:00 +20°C° 0,1 mm 2 m/S 745 mmHg 78%
    20:00 +18°C° 0,1 mm 2 m/S 745 mmHg 86%
    21:00 +18°C° 0,1 mm 2 m/S 744 mmHg 89%
    22:00 +18°C° 0,1 mm 2 m/S 744 mmHg 92%
    23:00 +17°C° 0,1 mm 2 m/S 744 mmHg 94%

    Morgen, 15 August, Mittwoch

    Zeit Temperatur Niederschläge Wind Luftdruck Luftfeuchtigkeit
    00:00 +17°C° 0,6 mm 2 m/S 743 mmHg 94%
    01:00 +18°C° 0,6 mm 3 m/S 743 mmHg 94%
    02:00 +18°C° 0,6 mm 3 m/S 742 mmHg 94%
    03:00 +18°C° 0,5 mm 3 m/S 742 mmHg 95%
    04:00 +18°C° 0,5 mm 4 m/S 741 mmHg 95%
    05:00 +18°C° 0,5 mm 4 m/S 741 mmHg 96%
    06:00 +18°C° 0,2 mm 4 m/S 741 mmHg 95%
    07:00 +19°C° 0,2 mm 4 m/S 741 mmHg 95%
    08:00 +19°C° 0,2 mm 4 m/S 741 mmHg 94%
    09:00 +19°C° 0 mm 4 m/S 741 mmHg 91%
    10:00 +19°C° 0 mm 4 m/S 741 mmHg 89%
    11:00 +19°C° 0 mm 4 m/S 742 mmHg 86%
    12:00 +20°C° 0 mm 4 m/S 742 mmHg 81%
    13:00 +20°C° 0 mm 4 m/S 742 mmHg 76%
    14:00 +21°C° 0 mm 4 m/S 742 mmHg 71%
    15:00 +22°C° 0 mm 4 m/S 742 mmHg 70%
    16:00 +22°C° 0 mm 3 m/S 743 mmHg 68%
    17:00 +22°C° 0 mm 3 m/S 743 mmHg 67%
    18:00 +21°C° 0,1 mm 2 m/S 743 mmHg 75%
    19:00 +19°C° 0,1 mm 2 m/S 744 mmHg 83%
    20:00 +19°C° 0,1 mm 1 m/S 744 mmHg 91%
    21:00 +18°C° 0 mm 1 m/S 744 mmHg 93%
    22:00 +18°C° 0 mm 1 m/S 744 mmHg 95%
    23:00 +16°C° 0 mm 1 m/S 745 mmHg 97%

    übermorgen, 16 August, Donnerstag

    Zeit Temperatur Niederschläge Wind Luftdruck Luftfeuchtigkeit
    00:00 +16°C° 0 mm 1 m/S 745 mmHg 98%
    01:00 +16°C° 0 mm 1 m/S 745 mmHg 98%
    02:00 +15°C° 0 mm 1 m/S 746 mmHg 98%
    03:00 +15°C° 0 mm 1 m/S 746 mmHg 98%
    04:00 +15°C° 0 mm 1 m/S 746 mmHg 97%
    05:00 +15°C° 0 mm 2 m/S 747 mmHg 97%
    06:00 +15°C° 0 mm 2 m/S 747 mmHg 95%
    07:00 +16°C° 0 mm 2 m/S 748 mmHg 92%
    08:00 +16°C° 0 mm 2 m/S 748 mmHg 89%
    09:00 +17°C° 0 mm 2 m/S 748 mmHg 82%
    10:00 +18°C° 0 mm 2 m/S 749 mmHg 75%
    11:00 +20°C° 0 mm 2 m/S 749 mmHg 68%
    12:00 +20°C° 0 mm 2 m/S 749 mmHg 63%
    13:00 +21°C° 0 mm 2 m/S 749 mmHg 59%
    14:00 +23°C° 0 mm 2 m/S 749 mmHg 54%
    15:00 +23°C° 0 mm 2 m/S 749 mmHg 55%
    16:00 +23°C° 0 mm 2 m/S 750 mmHg 56%
    17:00 +23°C° 0 mm 2 m/S 750 mmHg 57%
    18:00 +20°C° 0 mm 2 m/S 750 mmHg 65%
    19:00 +18°C° 0 mm 2 m/S 750 mmHg 72%
    20:00 +18°C° 0 mm 1 m/S 750 mmHg 80%
    21:00 +16°C° 0 mm 1 m/S 751 mmHg 82%
    22:00 +15°C° 0 mm 1 m/S 751 mmHg 85%
    23:00 +14°C° 0 mm 1 m/S 751 mmHg 87%

    17 August, Freitag

    Zeit Temperatur Niederschläge Wind Luftdruck Luftfeuchtigkeit
    00:00 +14°C° 0 mm 1 m/S 751 mmHg 88%
    01:00 +14°C° 0 mm 1 m/S 751 mmHg 89%
    02:00 +13°C° 0 mm 1 m/S 752 mmHg 90%
    03:00 +13°C° 0 mm 1 m/S 752 mmHg 91%
    04:00 +13°C° 0 mm 1 m/S 752 mmHg 92%
    05:00 +12°C° 0 mm 1 m/S 752 mmHg 93%
    06:00 +14°C° 0 mm 1 m/S 752 mmHg 85%
    07:00 +16°C° 0 mm 1 m/S 752 mmHg 77%
    08:00 +19°C° 0 mm 1 m/S 753 mmHg 69%
    09:00 +20°C° 0 mm 2 m/S 753 mmHg 62%
    10:00 +23°C° 0 mm 2 m/S 753 mmHg 55%
    11:00 +24°C° 0 mm 2 m/S 752 mmHg 49%
    12:00 +25°C° 0 mm 2 m/S 752 mmHg 46%
    13:00 +25°C° 0 mm 2 m/S 752 mmHg 44%
    14:00 +26°C° 0 mm 2 m/S 752 mmHg 42%
    15:00 +26°C° 0 mm 2 m/S 752 mmHg 45%
    16:00 +25°C° 0 mm 2 m/S 751 mmHg 49%
    17:00 +25°C° 0 mm 1 m/S 751 mmHg 52%
    18:00 +23°C° 0 mm 1 m/S 751 mmHg 59%
    19:00 +21°C° 0 mm 1 m/S 751 mmHg 65%
    20:00 +18°C° 0 mm 1 m/S 751 mmHg 72%
    21:00 +17°C° 0 mm 2 m/S 751 mmHg 75%
    22:00 +16°C° 0 mm 2 m/S 751 mmHg 79%
    23:00 +15°C° 0 mm 2 m/S 751 mmHg 82%

    18 August, Samstag

    Zeit Temperatur Niederschläge Wind Luftdruck Luftfeuchtigkeit
    00:00 +15°C° 0 mm 2 m/S 751 mmHg 85%
    01:00 +15°C° 0 mm 2 m/S 751 mmHg 88%
    02:00 +14°C° 0 mm 2 m/S 751 mmHg 91%
    03:00 +14°C° 0 mm 2 m/S 751 mmHg 92%
    04:00 +14°C° 0 mm 2 m/S 751 mmHg 93%
    05:00 +14°C° 0 mm 2 m/S 751 mmHg 93%
    06:00 +15°C° 0 mm 2 m/S 751 mmHg 86%
    07:00 +17°C° 0 mm 2 m/S 751 mmHg 79%
    08:00 +19°C° 0 mm 2 m/S 751 mmHg 72%
    09:00 +21°C° 0 mm 2 m/S 751 mmHg 67%
    10:00 +24°C° 0 mm 3 m/S 751 mmHg 62%
    11:00 +25°C° 0 mm 3 m/S 751 mmHg 57%
    12:00 +26°C° 0 mm 3 m/S 751 mmHg 56%
    13:00 +27°C° 0 mm 3 m/S 750 mmHg 54%
    14:00 +27°C° 0 mm 3 m/S 750 mmHg 52%
    15:00 +27°C° 0,2 mm 3 m/S 750 mmHg 57%
    16:00 +27°C° 0,2 mm 2 m/S 749 mmHg 61%
    17:00 +26°C° 0,2 mm 2 m/S 749 mmHg 66%
    18:00 +24°C° 0,1 mm 2 m/S 749 mmHg 73%
    19:00 +23°C° 0,1 mm 2 m/S 749 mmHg 79%
    20:00 +20°C° 0,1 mm 2 m/S 749 mmHg 86%
    21:00 +19°C° 0,4 mm 2 m/S 749 mmHg 88%
    22:00 +19°C° 0,4 mm 2 m/S 749 mmHg 90%
    23:00 +18°C° 0,4 mm 2 m/S 748 mmHg 92%

    19 August, Sonntag

    Zeit Temperatur Niederschläge Wind Luftdruck Luftfeuchtigkeit
    00:00 +18°C° 0,2 mm 2 m/S 748 mmHg 93%
    01:00 +18°C° 0,2 mm 2 m/S 748 mmHg 94%
    02:00 +17°C° 0,2 mm 2 m/S 748 mmHg 95%
    03:00 +17°C° 0,1 mm 2 m/S 748 mmHg 96%
    04:00 +18°C° 0,1 mm 1 m/S 748 mmHg 97%
    05:00 +16°C° 0,1 mm 1 m/S 748 mmHg 98%
    06:00 +19°C° 0 mm 1 m/S 748 mmHg 95%
    07:00 +19°C° 0 mm 2 m/S 748 mmHg 92%
    08:00 +20°C° 0 mm 2 m/S 748 mmHg 89%
    09:00 +21°C° 0 mm 2 m/S 748 mmHg 82%
    10:00 +24°C° 0 mm 2 m/S 748 mmHg 75%
    11:00 +25°C° 0 mm 3 m/S 748 mmHg 68%
    12:00 +25°C° 0,2 mm 3 m/S 748 mmHg 65%
    13:00 +25°C° 0,2 mm 3 m/S 747 mmHg 63%
    14:00 +25°C° 0,2 mm 3 m/S 747 mmHg 60%
    15:00 +25°C° 0,1 mm 3 m/S 747 mmHg 60%
    16:00 +25°C° 0,1 mm 3 m/S 747 mmHg 60%
    17:00 +24°C° 0,1 mm 2 m/S 747 mmHg 61%
    18:00 +21°C° 0 mm 2 m/S 747 mmHg 68%
    19:00 +19°C° 0 mm 2 m/S 747 mmHg 76%
    20:00 +18°C° 0 mm 2 m/S 747 mmHg 84%
    21:00 +17°C° 0 mm 2 m/S 747 mmHg 87%
    22:00 +16°C° 0 mm 1 m/S 748 mmHg 91%
    23:00 +16°C° 0 mm 1 m/S 748 mmHg 95%
    Mehr zeigen